Pocatello, ID

8:47 PM MDT on June 24, 2017 (GMT -0600)
Pocatello Regional

Weather History for KPIH - July, 2013

Change the Weather History Date:

Thursday, July 11, 2013

  Actual Average Record
Temperature  
Mean Temperature 72 °F 69 °F  
Max Temperature 86 °F 87 °F 101 °F (2002)
Min Temperature 58 °F 52 °F 40 °F (1983)
Degree Days  
Heating Degree Days 0 1  
Month to date heating degree days 0 12  
Since 1 June heating degree days 90 143  
Since 1 July heating degree days 0 12  
Cooling Degree Days 7 5  
Month to date cooling degree days 112 48  
Year to date cooling degree days 214 99  
Since 1 June cooling degree days 205 94  
Growing Degree Days 23 (Base 50)    
Moisture  
Dew Point 40 °F    
Average Humidity 43    
Maximum Humidity 72    
Minimum Humidity 14    
Precipitation  
Precipitation 0.02 in 0.02 in 0.43 in (1941)
Month to date precipitation 0.14 0.21  
Year to date precipitation 3.69 7.03  
Snow  
Snow 0.00 in - - ()
Month to date snowfall 0.0  
Since 1 June snowfall 0.0  
Since 1 July snowfall 0.0  
Snow Depth 0.00 in    
Sea Level Pressure  
Sea Level Pressure 29.86 in    
Wind  
Wind Speed 12 mph (SW)    
Max Wind Speed 31 mph    
Max Gust Speed 37 mph    
Visibility 10 miles    
Events Rain    
T = Trace of Precipitation, MM = Missing Value Source: NWS Daily Summary

Daily Weather History Graph

Daily Weather History Graph

Search for Another Location

Airport or City:

Trip Planner

Search our weather history database for the weather conditions in past years. The results will help you decide how hot, cold, wet, or windy it might be!

Date:

Astronomy

Jul. 11, 2013 Rise Set
Actual Time 6:02 AM MDT 9:09 PM MDT
Civil Twilight 5:27 AM MDT 9:43 PM MDT
Nautical Twilight 4:43 AM MDT 10:27 PM MDT
Astronomical Twilight 3:50 AM MDT 11:20 PM MDT
Moon 9:30 AM MDT (7/11) 10:44 PM MDT (7/11)
Length of Visible Light 16h 15m
Length of Day
15h 07m
Waxing Crescent, 11% of the Moon is Illuminated
Jul 11
Waxing Crescent
Jul 15
First Quarter
Jul 22
Full
Jul 29
Last Quarter
Aug 6
New

Hourly Weather History & Observations

Time (MDT) Temp. Dew Point Humidity Pressure Visibility Wind Dir Wind Speed Gust Speed Precip Events Conditions
12:53 AM 75.9 °F 30.0 °F 19% 29.76 in 10.0 mi SSW 5.8 mph - N/A   Clear
1:53 AM 70.0 °F 35.1 °F 28% 29.77 in 10.0 mi SW 8.1 mph - N/A   Clear
2:53 AM 78.1 °F 30.0 °F 17% 29.76 in 10.0 mi SSW 13.8 mph - N/A   Clear
3:53 AM 77.0 °F 28.0 °F 17% 29.76 in 10.0 mi SSW 13.8 mph - N/A   Clear
4:53 AM 72.0 °F 28.0 °F 20% 29.77 in 10.0 mi SSW 10.4 mph - N/A   Clear
5:53 AM 66.0 °F 27.0 °F 23% 29.79 in 10.0 mi South 8.1 mph - N/A   Clear
6:53 AM 77.0 °F 24.1 °F 14% 29.80 in 10.0 mi SW 15.0 mph - N/A   Clear
7:53 AM 79.0 °F 28.9 °F 16% 29.80 in 10.0 mi SW 13.8 mph - N/A   Clear
8:53 AM 81.0 °F 34.0 °F 18% 29.83 in 10.0 mi SW 15.0 mph - N/A   Clear
9:53 AM 80.1 °F 37.0 °F 21% 29.86 in 10.0 mi SW 15.0 mph - N/A   Clear
10:53 AM 82.0 °F 37.9 °F 21% 29.86 in 10.0 mi WSW 11.5 mph - N/A   Clear
11:53 AM 84.0 °F 43.0 °F 24% 29.86 in 10.0 mi SSW 19.6 mph - N/A   Clear
12:53 PM 81.0 °F 46.0 °F 29% 29.88 in 10.0 mi WSW 19.6 mph 26.5 mph N/A   Clear
1:53 PM 81.0 °F 42.1 °F 25% 29.91 in 10.0 mi West 25.3 mph 34.5 mph N/A   Clear
2:53 PM 81.0 °F 41.0 °F 24% 29.90 in 10.0 mi West 25.3 mph 29.9 mph N/A   Clear
3:53 PM 80.1 °F 43.0 °F 27% 29.91 in 10.0 mi West 17.3 mph - N/A   Clear
4:53 PM 75.0 °F 44.1 °F 33% 29.94 in 10.0 mi WSW 17.3 mph - N/A   Partly Cloudy
5:53 PM 69.1 °F 46.9 °F 45% 29.97 in 10.0 mi WSW 13.8 mph - N/A   Mostly Cloudy
6:53 PM 63.0 °F 54.0 °F 72% 29.95 in 10.0 mi South 8.1 mph - 0.02 in Rain Light Rain
7:53 PM 63.0 °F 52.0 °F 67% 29.92 in 10.0 mi SSE 8.1 mph - 0.00 in   Mostly Cloudy
8:53 PM 64.9 °F 51.1 °F 61% 29.88 in 10.0 mi Calm Calm - 0.00 in   Mostly Cloudy
9:53 PM 64.0 °F 50.0 °F 60% 29.88 in 10.0 mi South 4.6 mph - N/A   Mostly Cloudy
10:53 PM 64.9 °F 48.9 °F 56% 29.87 in 10.0 mi SSW 8.1 mph - N/A   Clear
11:53 PM 60.1 °F 52.0 °F 75% 29.88 in 10.0 mi Calm Calm - N/A   Clear